Time,TemperatureF,DewpointF,PressureIn,WindDirection,WindDirectionDegrees,WindSpeedMPH,WindSpeedGustMPH,Humidity,HourlyPrecipIn,Conditions,Clouds,dailyrainin,SoftwareType,DateUTC
2013-03-04 00:00:00,30.9,18.3,30.01,WSW,243,6.0,8.0,59,0.00,,,0.00,WeatherCatV1.11B39,2013-03-04 05:00:00,
2013-03-04 00:05:00,31.0,18.4,30.01,SSE,159,2.0,5.0,59,0.00,,,0.00,WeatherCatV1.11B39,2013-03-04 05:05:00,
2013-03-04 00:10:00,31.0,18.8,30.01,WNW,293,1.0,4.0,60,0.00,,,0.00,WeatherCatV1.11B39,2013-03-04 05:10:00,
2013-03-04 00:15:00,30.9,18.3,30.01,WSW,257,3.0,3.0,59,0.00,,,0.00,WeatherCatV1.11B39,2013-03-04 05:15:00,
2013-03-04 00:19:00,31.1,18.5,30.01,SSE,158,10.0,10.0,59,0.00,,,0.00,WeatherCatV1.11B39,2013-03-04 05:19:00,
2013-03-04 00:24:00,31.3,18.7,30.01,SE,145,5.0,10.0,59,0.00,,,0.00,WeatherCatV1.11B39,2013-03-04 05:24:00,
2013-03-04 00:29:00,31.4,18.4,30.01,South,180,7.0,8.0,58,0.00,,,0.00,WeatherCatV1.11B39,2013-03-04 05:29:00,
2013-03-04 00:34:00,31.5,18.4,30.01,SE,136,7.0,7.0,58,0.00,,,0.00,WeatherCatV1.11B39,2013-03-04 05:34:00,
2013-03-04 00:39:00,31.5,18.0,30.01,SW,214,4.0,12.0,57,0.00,,,0.00,WeatherCatV1.11B39,2013-03-04 05:39:00,
2013-03-04 00:44:00,31.7,18.2,30.01,SSE,159,2.0,7.0,57,0.00,,,0.00,WeatherCatV1.11B39,2013-03-04 05:44:00,
2013-03-04 00:49:00,31.7,18.2,30.01,South,175,2.0,12.0,57,0.00,,,0.00,WeatherCatV1.11B39,2013-03-04 05:49:00,
2013-03-04 00:54:00,31.7,18.6,30.01,South,180,14.0,14.0,58,0.00,,,0.00,WeatherCatV1.11B39,2013-03-04 05:54:00,
2013-03-04 00:59:00,31.6,18.5,30.01,SSE,167,9.0,9.0,58,0.00,,,0.00,WeatherCatV1.11B39,2013-03-04 05:59:00,
2013-03-04 01:04:00,31.6,18.5,30.01,SW,229,3.0,6.0,58,0.00,,,0.00,WeatherCatV1.11B39,2013-03-04 06:04:00,
2013-03-04 01:09:00,31.6,18.5,30.02,SSW,210,7.0,7.0,58,0.00,,,0.00,WeatherCatV1.11B39,2013-03-04 06:09:00,
2013-03-04 01:14:00,31.6,18.5,30.02,SSE,163,4.0,6.0,58,0.00,,,0.00,WeatherCatV1.11B39,2013-03-04 06:14:00,
2013-03-04 01:19:00,31.5,18.4,30.02,WSW,240,7.0,8.0,58,0.00,,,0.00,WeatherCatV1.11B39,2013-03-04 06:19:00,
2013-03-04 01:24:00,31.4,18.8,30.02,SW,226,6.0,12.0,59,0.00,,,0.00,WeatherCatV1.11B39,2013-03-04 06:24:00,
2013-03-04 01:29:00,31.3,18.7,30.02,SSW,202,2.0,9.0,59,0.00,,,0.00,WeatherCatV1.11B39,2013-03-04 06:29:00,
2013-03-04 01:34:00,31.4,18.4,30.02,WSW,237,4.0,16.0,58,0.00,,,0.00,WeatherCatV1.11B39,2013-03-04 06:34:00,
2013-03-04 01:39:00,31.4,18.4,30.02,SW,231,8.0,8.0,58,0.00,,,0.00,WeatherCatV1.11B39,2013-03-04 06:39:00,
2013-03-04 01:44:00,31.3,18.3,30.02,SSW,213,1.0,4.0,58,0.00,,,0.00,WeatherCatV1.11B39,2013-03-04 06:44:00,
2013-03-04 01:49:00,31.3,18.3,30.03,SSE,150,1.0,7.0,58,0.00,,,0.00,WeatherCatV1.11B39,2013-03-04 06:49:00,
2013-03-04 01:52:00,31.3,18.7,30.03,SW,225,11.0,11.0,59,0.00,,,0.00,WeatherCatV1.11B39,2013-03-04 06:52:00,
2013-03-04 01:57:00,31.2,18.6,30.03,South,182,8.0,8.0,59,0.00,,,0.00,WeatherCatV1.11B39,2013-03-04 06:57:00,
2013-03-04 02:02:00,31.3,18.7,30.03,SW,219,3.0,8.0,59,0.00,,,0.00,WeatherCatV1.11B39,2013-03-04 07:02:00,
2013-03-04 02:07:00,31.2,18.6,30.03,WSW,242,4.0,5.0,59,0.00,,,0.00,WeatherCatV1.11B39,2013-03-04 07:07:00,
2013-03-04 02:12:00,31.1,18.1,30.03,South,178,7.0,9.0,58,0.00,,,0.00,WeatherCatV1.11B39,2013-03-04 07:12:00,
2013-03-04 02:17:00,31.2,18.2,30.04,SE,130,1.0,8.0,58,0.00,,,0.00,WeatherCatV1.11B39,2013-03-04 07:17:00,
2013-03-04 02:22:00,31.2,18.2,30.04,SE,136,6.0,7.0,58,0.00,,,0.00,WeatherCatV1.11B39,2013-03-04 07:22:00,
2013-03-04 02:27:00,31.1,18.5,30.04,SE,140,4.0,8.0,59,0.00,,,0.00,WeatherCatV1.11B39,2013-03-04 07:27:00,
2013-03-04 02:32:00,31.0,18.4,30.03,SSW,194,1.0,6.0,59,0.00,,,0.00,WeatherCatV1.11B39,2013-03-04 07:32:00,
2013-03-04 02:37:00,31.0,18.4,30.03,SSE,165,7.0,13.0,59,0.00,,,0.00,WeatherCatV1.11B39,2013-03-04 07:37:00,
2013-03-04 02:42:00,31.1,18.1,30.03,SSE,167,5.0,8.0,58,0.00,,,0.00,WeatherCatV1.11B39,2013-03-04 07:42:00,
2013-03-04 02:47:00,31.0,18.0,30.02,South,176,2.0,6.0,58,0.00,,,0.00,WeatherCatV1.11B39,2013-03-04 07:47:00,
2013-03-04 02:52:00,31.0,18.4,30.02,SSE,158,6.0,12.0,59,0.00,,,0.00,WeatherCatV1.11B39,2013-03-04 07:52:00,
2013-03-04 02:57:00,30.9,18.3,30.02,SSE,165,4.0,8.0,59,0.00,,,0.00,WeatherCatV1.11B39,2013-03-04 07:57:00,
2013-03-04 03:02:00,30.9,17.9,30.03,SSW,198,1.0,11.0,58,0.00,,,0.00,WeatherCatV1.11B39,2013-03-04 08:02:00,
2013-03-04 03:07:00,31.0,18.0,30.03,SE,144,5.0,6.0,58,0.00,,,0.00,WeatherCatV1.11B39,2013-03-04 08:07:00,
2013-03-04 03:12:00,31.0,18.0,30.04,South,170,5.0,10.0,58,0.00,,,0.00,WeatherCatV1.11B39,2013-03-04 08:12:00,
2013-03-04 03:17:00,31.0,18.0,30.04,WSW,253,3.0,5.0,58,0.00,,,0.00,WeatherCatV1.11B39,2013-03-04 08:17:00,
2013-03-04 03:22:00,31.0,18.0,30.04,ESE,115,0.0,7.0,58,0.00,,,0.00,WeatherCatV1.11B39,2013-03-04 08:22:00,
2013-03-04 03:27:00,30.9,17.9,30.03,SE,145,2.0,5.0,58,0.00,,,0.00,WeatherCatV1.11B39,2013-03-04 08:27:00,
2013-03-04 03:32:00,30.8,17.8,30.04,ESE,119,2.0,6.0,58,0.00,,,0.00,WeatherCatV1.11B39,2013-03-04 08:32:00,
2013-03-04 03:37:00,30.6,17.6,30.05,SE,141,0.0,4.0,58,0.00,,,0.00,WeatherCatV1.11B39,2013-03-04 08:37:00,
2013-03-04 03:42:00,30.7,17.7,30.05,SW,224,5.0,8.0,58,0.00,,,0.00,WeatherCatV1.11B39,2013-03-04 08:42:00,
2013-03-04 03:47:00,30.7,17.7,30.05,SSW,201,3.0,6.0,58,0.00,,,0.00,WeatherCatV1.11B39,2013-03-04 08:47:00,
2013-03-04 03:52:00,30.7,17.7,30.05,South,178,5.0,7.0,58,0.00,,,0.00,WeatherCatV1.11B39,2013-03-04 08:52:00,
2013-03-04 03:57:00,30.7,17.7,30.05,South,174,0.0,2.0,58,0.00,,,0.00,WeatherCatV1.11B39,2013-03-04 08:57:00,
2013-03-04 04:02:00,30.6,17.6,30.06,SE,142,0.0,2.0,58,0.00,,,0.00,WeatherCatV1.11B39,2013-03-04 09:02:00,
2013-03-04 04:07:00,30.6,17.6,30.05,WSW,247,7.0,7.0,58,0.00,,,0.00,WeatherCatV1.11B39,2013-03-04 09:07:00,
2013-03-04 04:12:00,30.7,17.7,30.06,South,176,2.0,6.0,58,0.00,,,0.00,WeatherCatV1.11B39,2013-03-04 09:12:00,
2013-03-04 04:17:00,30.8,17.4,30.06,SSE,155,2.0,7.0,57,0.00,,,0.00,WeatherCatV1.11B39,2013-03-04 09:17:00,
2013-03-04 04:22:00,30.8,17.4,30.07,SE,144,0.0,5.0,57,0.00,,,0.00,WeatherCatV1.11B39,2013-03-04 09:22:00,
2013-03-04 04:27:00,30.8,17.4,30.07,South,183,3.0,5.0,57,0.00,,,0.00,WeatherCatV1.11B39,2013-03-04 09:27:00,
2013-03-04 04:32:00,30.7,17.7,30.06,South,173,0.0,0.0,58,0.00,,,0.00,WeatherCatV1.11B39,2013-03-04 09:32:00,
2013-03-04 04:37:00,30.7,17.3,30.06,South,175,2.0,4.0,57,0.00,,,0.00,WeatherCatV1.11B39,2013-03-04 09:37:00,
2013-03-04 04:42:00,30.6,17.6,30.07,South,181,0.0,3.0,58,0.00,,,0.00,WeatherCatV1.11B39,2013-03-04 09:42:00,
2013-03-04 04:46:00,30.5,17.5,30.07,South,181,1.0,2.0,58,0.00,,,0.00,WeatherCatV1.11B39,2013-03-04 09:46:00,
2013-03-04 04:51:00,30.4,17.0,30.07,ESE,113,4.0,6.0,57,0.00,,,0.00,WeatherCatV1.11B39,2013-03-04 09:51:00,
2013-03-04 04:56:00,30.5,17.1,30.07,ESE,113,1.0,1.0,57,0.00,,,0.00,WeatherCatV1.11B39,2013-03-04 09:56:00,
2013-03-04 05:01:00,30.5,17.1,30.07,SSW,196,1.0,4.0,57,0.00,,,0.00,WeatherCatV1.11B39,2013-03-04 10:01:00,
2013-03-04 05:06:00,30.5,17.1,30.07,SSW,196,2.0,2.0,57,0.00,,,0.00,WeatherCatV1.11B39,2013-03-04 10:06:00,
2013-03-04 05:11:00,30.5,17.1,30.07,SSW,196,1.0,2.0,57,0.00,,,0.00,WeatherCatV1.11B39,2013-03-04 10:11:00,
2013-03-04 05:16:00,30.3,17.3,30.06,SSW,192,2.0,2.0,58,0.00,,,0.00,WeatherCatV1.11B39,2013-03-04 10:16:00,
2013-03-04 05:21:00,30.2,17.2,30.06,SSW,192,0.0,2.0,58,0.00,,,0.00,WeatherCatV1.11B39,2013-03-04 10:21:00,
2013-03-04 05:26:00,30.0,17.8,30.06,East,101,0.0,4.0,60,0.00,,,0.00,WeatherCatV1.11B39,2013-03-04 10:26:00,
2013-03-04 05:31:00,29.6,17.8,30.06,North,0,3.0,4.0,61,0.00,,,0.00,WeatherCatV1.11B39,2013-03-04 10:31:00,
2013-03-04 05:36:00,29.4,17.3,30.06,North,0,2.0,2.0,60,0.00,,,0.00,WeatherCatV1.11B39,2013-03-04 10:36:00,
2013-03-04 05:41:00,29.1,17.7,30.07,North,0,0.0,1.0,62,0.00,,,0.00,WeatherCatV1.11B39,2013-03-04 10:41:00,
2013-03-04 05:46:00,28.8,17.8,30.07,North,0,0.0,0.0,63,0.00,,,0.00,WeatherCatV1.11B39,2013-03-04 10:46:00,
2013-03-04 05:51:00,28.6,17.6,30.07,North,0,1.0,1.0,63,0.00,,,0.00,WeatherCatV1.11B39,2013-03-04 10:51:00,
2013-03-04 05:56:00,28.3,17.3,30.07,North,355,0.0,2.0,63,0.00,,,0.00,WeatherCatV1.11B39,2013-03-04 10:56:00,
2013-03-04 06:01:00,28.1,19.3,30.07,North,355,0.0,0.0,69,0.00,,,0.00,WeatherCatV1.11B39,2013-03-04 11:01:00,
2013-03-04 06:06:00,27.9,19.1,30.07,North,355,0.0,0.0,69,0.00,,,0.00,WeatherCatV1.11B39,2013-03-04 11:06:00,
2013-03-04 06:11:00,27.7,19.2,30.08,North,355,0.0,0.0,70,0.00,,,0.00,WeatherCatV1.11B39,2013-03-04 11:11:00,
2013-03-04 06:16:00,27.6,18.1,30.08,North,355,1.0,2.0,67,0.00,,,0.00,WeatherCatV1.11B39,2013-03-04 11:16:00,
2013-03-04 06:21:00,27.6,18.4,30.08,North,355,1.0,2.0,68,0.00,,,0.00,WeatherCatV1.11B39,2013-03-04 11:21:00,
2013-03-04 06:26:00,27.6,18.1,30.08,North,355,1.0,2.0,67,0.00,,,0.00,WeatherCatV1.11B39,2013-03-04 11:26:00,
2013-03-04 06:31:00,27.7,17.5,30.08,North,355,2.0,2.0,65,0.00,,,0.00,WeatherCatV1.11B39,2013-03-04 11:31:00,
2013-03-04 06:36:00,27.9,17.3,30.08,North,0,0.0,1.0,64,0.00,,,0.00,WeatherCatV1.11B39,2013-03-04 11:36:00,
2013-03-04 06:41:00,28.0,20.2,30.09,ESE,109,1.0,4.0,72,0.00,,,0.00,WeatherCatV1.11B39,2013-03-04 11:41:00,
2013-03-04 06:46:00,27.8,18.3,30.09,ESE,105,2.0,4.0,67,0.00,,,0.00,WeatherCatV1.11B39,2013-03-04 11:46:00,
2013-03-04 06:51:00,27.6,19.1,30.09,SE,125,2.0,5.0,70,0.00,,,0.00,WeatherCatV1.11B39,2013-03-04 11:51:00,
2013-03-04 06:56:00,27.6,19.4,30.10,ESE,121,0.0,2.0,71,0.00,,,0.00,WeatherCatV1.11B39,2013-03-04 11:56:00,
2013-03-04 07:01:00,27.5,19.0,30.10,ESE,119,2.0,4.0,70,0.00,,,0.00,WeatherCatV1.11B39,2013-03-04 12:01:00,
2013-03-04 07:06:00,27.7,18.9,30.09,ESE,109,2.0,4.0,69,0.00,,,0.00,WeatherCatV1.11B39,2013-03-04 12:06:00,
2013-03-04 07:11:00,27.6,18.8,30.10,ESE,109,1.0,2.0,69,0.00,,,0.00,WeatherCatV1.11B39,2013-03-04 12:11:00,
2013-03-04 07:16:00,27.6,18.4,30.10,ESE,109,2.0,2.0,68,0.00,,,0.00,WeatherCatV1.11B39,2013-03-04 12:16:00,
2013-03-04 07:21:00,27.8,17.9,30.10,ESE,102,0.0,2.0,66,0.00,,,0.00,WeatherCatV1.11B39,2013-03-04 12:21:00,
2013-03-04 07:26:00,27.8,19.3,30.10,ESE,102,2.0,4.0,70,0.00,,,0.00,WeatherCatV1.11B39,2013-03-04 12:26:00,
2013-03-04 07:31:00,28.3,18.8,30.10,East,101,0.0,1.0,67,0.00,,,0.00,WeatherCatV1.11B39,2013-03-04 12:31:00,
2013-03-04 07:36:00,28.8,18.2,30.10,East,101,1.0,2.0,64,0.00,,,0.00,WeatherCatV1.11B39,2013-03-04 12:36:00,
2013-03-04 07:41:00,29.1,19.2,30.10,East,101,0.0,0.0,66,0.00,,,0.00,WeatherCatV1.11B39,2013-03-04 12:41:00,
2013-03-04 07:46:00,29.5,18.5,30.10,East,92,1.0,2.0,63,0.00,,,0.00,WeatherCatV1.11B39,2013-03-04 12:46:00,
2013-03-04 07:51:00,29.8,18.4,30.10,ENE,62,2.0,5.0,62,0.00,,,0.00,WeatherCatV1.11B39,2013-03-04 12:51:00,
2013-03-04 07:56:00,30.5,17.5,30.10,NE,47,5.0,6.0,58,0.00,,,0.00,WeatherCatV1.11B39,2013-03-04 12:56:00,
2013-03-04 08:01:00,31.5,17.6,30.10,ENE,76,4.0,5.0,56,0.00,,,0.00,WeatherCatV1.11B39,2013-03-04 13:01:00,
2013-03-04 08:06:00,32.0,19.7,30.10,ENE,74,4.0,5.0,60,0.00,,,0.00,WeatherCatV1.11B39,2013-03-04 13:06:00,
2013-03-04 08:11:00,32.2,17.9,30.10,ENE,74,4.0,4.0,55,0.00,,,0.00,WeatherCatV1.11B39,2013-03-04 13:11:00,
2013-03-04 08:16:00,32.7,17.5,30.10,ENE,74,3.0,6.0,53,0.00,,,0.00,WeatherCatV1.11B39,2013-03-04 13:16:00,
2013-03-04 08:21:00,33.3,17.6,30.10,ENE,74,5.0,6.0,52,0.00,,,0.00,WeatherCatV1.11B39,2013-03-04 13:21:00,
2013-03-04 08:26:00,34.0,17.3,30.10,East,80,6.0,8.0,50,0.00,,,0.00,WeatherCatV1.11B39,2013-03-04 13:26:00,
2013-03-04 08:31:00,34.5,17.8,30.10,ENE,75,5.0,7.0,50,0.00,,,0.00,WeatherCatV1.11B39,2013-03-04 13:31:00,
2013-03-04 08:36:00,35.0,17.3,30.11,East,80,7.0,7.0,48,0.00,,,0.00,WeatherCatV1.11B39,2013-03-04 13:36:00,
2013-03-04 08:41:00,35.5,16.8,30.10,ENE,78,7.0,7.0,46,0.00,,,0.00,WeatherCatV1.11B39,2013-03-04 13:41:00,
2013-03-04 08:46:00,36.0,17.3,30.11,East,88,5.0,7.0,46,0.00,,,0.00,WeatherCatV1.11B39,2013-03-04 13:46:00,
2013-03-04 08:51:00,36.3,17.0,30.11,ENE,72,6.0,10.0,45,0.00,,,0.00,WeatherCatV1.11B39,2013-03-04 13:51:00,
2013-03-04 08:56:00,36.7,16.3,30.11,ENE,76,3.0,8.0,43,0.00,,,0.00,WeatherCatV1.11B39,2013-03-04 13:56:00,
2013-03-04 09:01:00,37.2,17.8,30.10,East,85,4.0,6.0,45,0.00,,,0.00,WeatherCatV1.11B39,2013-03-04 14:01:00,
2013-03-04 09:06:00,37.6,16.6,30.11,ENE,69,5.0,6.0,42,0.00,,,0.00,WeatherCatV1.11B39,2013-03-04 14:06:00,
2013-03-04 09:11:00,38.0,17.0,30.10,ENE,76,4.0,8.0,42,0.00,,,0.00,WeatherCatV1.11B39,2013-03-04 14:11:00,
2013-03-04 09:16:00,38.3,14.3,30.11,East,80,3.0,6.0,37,0.00,,,0.00,WeatherCatV1.11B39,2013-03-04 14:16:00,
2013-03-04 09:21:00,38.8,17.1,30.11,NNW,348,4.0,4.0,41,0.00,,,0.00,WeatherCatV1.11B39,2013-03-04 14:21:00,
2013-03-04 09:26:00,39.7,15.6,30.11,North,11,3.0,4.0,37,0.00,,,0.00,WeatherCatV1.11B39,2013-03-04 14:26:00,
2013-03-04 09:31:00,40.2,15.4,30.11,East,80,4.0,6.0,36,0.00,,,0.00,WeatherCatV1.11B39,2013-03-04 14:31:00,
2013-03-04 09:36:00,40.2,16.0,30.11,ENE,70,2.0,4.0,37,0.00,,,0.00,WeatherCatV1.11B39,2013-03-04 14:36:00,
2013-03-04 09:41:00,40.4,14.9,30.11,ENE,65,3.0,4.0,35,0.00,,,0.00,WeatherCatV1.11B39,2013-03-04 14:41:00,
2013-03-04 09:46:00,40.7,15.2,30.11,ENE,65,1.0,6.0,35,0.00,,,0.00,WeatherCatV1.11B39,2013-03-04 14:46:00,
2013-03-04 09:50:00,41.1,15.6,30.12,NNE,28,4.0,7.0,35,0.00,,,0.00,WeatherCatV1.11B39,2013-03-04 14:50:00,
2013-03-04 09:55:00,41.5,14.6,30.12,NNE,16,5.0,7.0,33,0.00,,,0.00,WeatherCatV1.11B39,2013-03-04 14:55:00,
2013-03-04 10:00:00,42.2,14.5,30.12,SSE,148,8.0,8.0,32,0.00,,,0.00,WeatherCatV1.11B39,2013-03-04 15:00:00,
2013-03-04 10:05:00,42.3,13.8,30.11,SSE,150,0.0,9.0,31,0.00,,,0.00,WeatherCatV1.11B39,2013-03-04 15:05:00,
2013-03-04 10:10:00,42.4,13.9,30.11,South,177,2.0,7.0,31,0.00,,,0.00,WeatherCatV1.11B39,2013-03-04 15:10:00,
2013-03-04 10:15:00,42.7,13.5,30.11,SSE,159,4.0,8.0,30,0.00,,,0.00,WeatherCatV1.11B39,2013-03-04 15:15:00,
2013-03-04 10:20:00,43.0,14.5,30.11,SSE,150,2.0,7.0,31,0.00,,,0.00,WeatherCatV1.11B39,2013-03-04 15:20:00,
2013-03-04 10:25:00,43.5,12.6,30.10,SSW,194,5.0,9.0,28,0.00,,,0.00,WeatherCatV1.11B39,2013-03-04 15:25:00,
2013-03-04 10:30:00,43.6,13.5,30.11,SE,136,10.0,12.0,29,0.00,,,0.00,WeatherCatV1.11B39,2013-03-04 15:30:00,
2013-03-04 10:35:00,44.0,13.8,30.11,SSE,148,4.0,8.0,29,0.00,,,0.00,WeatherCatV1.11B39,2013-03-04 15:35:00,
2013-03-04 10:40:00,44.6,15.9,30.11,SSE,152,10.0,11.0,31,0.00,,,0.00,WeatherCatV1.11B39,2013-03-04 15:40:00,
2013-03-04 10:45:00,45.0,15.5,30.11,SE,143,7.0,12.0,30,0.00,,,0.00,WeatherCatV1.11B39,2013-03-04 15:45:00,
2013-03-04 10:50:00,45.2,15.6,30.11,WSW,240,0.0,8.0,30,0.00,,,0.00,WeatherCatV1.11B39,2013-03-04 15:50:00,
2013-03-04 10:55:00,45.6,16.0,30.11,ENE,67,6.0,14.0,30,0.00,,,0.00,WeatherCatV1.11B39,2013-03-04 15:55:00,
2013-03-04 11:00:00,46.0,16.3,30.11,SW,226,10.0,11.0,30,0.00,,,0.00,WeatherCatV1.11B39,2013-03-04 16:00:00,
2013-03-04 11:05:00,46.3,18.1,30.11,SW,231,8.0,8.0,32,0.00,,,0.00,WeatherCatV1.11B39,2013-03-04 16:05:00,
2013-03-04 11:10:00,46.6,17.6,30.10,SW,228,4.0,4.0,31,0.00,,,0.00,WeatherCatV1.11B39,2013-03-04 16:10:00,
2013-03-04 11:15:00,46.9,17.9,30.10,WSW,240,4.0,6.0,31,0.00,,,0.00,WeatherCatV1.11B39,2013-03-04 16:15:00,
2013-03-04 11:20:00,47.3,21.0,30.10,WSW,240,0.0,6.0,35,0.00,,,0.00,WeatherCatV1.11B39,2013-03-04 16:20:00,
2013-03-04 11:25:00,47.8,18.7,30.10,SE,134,7.0,11.0,31,0.00,,,0.00,WeatherCatV1.11B39,2013-03-04 16:25:00,
2013-03-04 11:30:00,47.6,19.9,30.10,South,189,1.0,4.0,33,0.00,,,0.00,WeatherCatV1.11B39,2013-03-04 16:30:00,
2013-03-04 11:35:00,47.8,21.5,30.10,SSE,161,6.0,9.0,35,0.00,,,0.00,WeatherCatV1.11B39,2013-03-04 16:35:00,
2013-03-04 11:40:00,48.1,21.8,30.10,South,173,11.0,12.0,35,0.00,,,0.00,WeatherCatV1.11B39,2013-03-04 16:40:00,
2013-03-04 11:45:00,48.3,21.9,30.10,SE,146,4.0,10.0,35,0.00,,,0.00,WeatherCatV1.11B39,2013-03-04 16:45:00,
2013-03-04 11:50:00,48.7,24.2,30.09,SE,146,5.0,6.0,38,0.00,,,0.00,WeatherCatV1.11B39,2013-03-04 16:50:00,
2013-03-04 11:55:00,49.4,22.2,30.09,SSE,160,5.0,11.0,34,0.00,,,0.00,WeatherCatV1.11B39,2013-03-04 16:55:00,
2013-03-04 12:00:00,49.9,24.0,30.09,East,91,11.0,14.0,36,0.00,,,0.00,WeatherCatV1.11B39,2013-03-04 17:00:00,
2013-03-04 12:05:00,49.7,22.5,30.08,SSE,148,6.0,13.0,34,0.00,,,0.00,WeatherCatV1.11B39,2013-03-04 17:05:00,
2013-03-04 12:10:00,49.6,21.0,30.08,SSE,159,4.0,13.0,32,0.00,,,0.00,WeatherCatV1.11B39,2013-03-04 17:10:00,
2013-03-04 12:15:00,50.0,23.4,30.08,ESE,108,8.0,10.0,35,0.00,,,0.00,WeatherCatV1.11B39,2013-03-04 17:15:00,
2013-03-04 12:20:00,50.5,25.2,30.07,SSE,159,6.0,8.0,37,0.00,,,0.00,WeatherCatV1.11B39,2013-03-04 17:20:00,
2013-03-04 12:25:00,50.8,24.1,30.07,SE,129,4.0,12.0,35,0.00,,,0.00,WeatherCatV1.11B39,2013-03-04 17:25:00,
2013-03-04 12:30:00,51.3,24.6,30.07,SSW,210,3.0,10.0,35,0.00,,,0.00,WeatherCatV1.11B39,2013-03-04 17:30:00,
2013-03-04 12:35:00,51.8,25.7,30.07,SE,132,11.0,11.0,36,0.00,,,0.00,WeatherCatV1.11B39,2013-03-04 17:35:00,
2013-03-04 12:40:00,51.6,24.2,30.07,SSW,204,7.0,12.0,34,0.00,,,0.00,WeatherCatV1.11B39,2013-03-04 17:40:00,
2013-03-04 12:45:00,51.5,25.4,30.06,South,188,9.0,9.0,36,0.00,,,0.00,WeatherCatV1.11B39,2013-03-04 17:45:00,
2013-03-04 12:50:00,51.9,25.1,30.06,East,92,11.0,12.0,35,0.00,,,0.00,WeatherCatV1.11B39,2013-03-04 17:50:00,
2013-03-04 12:55:00,52.1,26.6,30.06,East,101,6.0,7.0,37,0.00,,,0.00,WeatherCatV1.11B39,2013-03-04 17:55:00,
2013-03-04 13:00:00,52.4,25.6,30.06,NNW,333,2.0,5.0,35,0.00,,,0.00,WeatherCatV1.11B39,2013-03-04 18:00:00,
2013-03-04 13:05:00,53.1,27.5,30.06,ESE,106,7.0,7.0,37,0.00,,,0.00,WeatherCatV1.11B39,2013-03-04 18:05:00,
2013-03-04 13:10:00,52.8,23.8,30.05,ESE,111,6.0,7.0,32,0.00,,,0.00,WeatherCatV1.11B39,2013-03-04 18:10:00,
2013-03-04 13:15:00,53.0,25.4,30.05,SE,146,1.0,8.0,34,0.00,,,0.00,WeatherCatV1.11B39,2013-03-04 18:15:00,
2013-03-04 13:20:00,53.2,24.9,30.05,ESE,105,13.0,14.0,33,0.00,,,0.00,WeatherCatV1.11B39,2013-03-04 18:20:00,
2013-03-04 13:25:00,53.0,24.7,30.04,East,93,8.0,12.0,33,0.00,,,0.00,WeatherCatV1.11B39,2013-03-04 18:25:00,
2013-03-04 13:29:00,53.0,25.4,30.04,ENE,70,3.0,4.0,34,0.00,,,0.00,WeatherCatV1.11B39,2013-03-04 18:29:00,
2013-03-04 13:34:00,53.4,25.7,30.04,SSE,150,0.0,11.0,34,0.00,,,0.00,WeatherCatV1.11B39,2013-03-04 18:34:00,
2013-03-04 13:39:00,53.6,25.2,30.04,East,80,5.0,5.0,33,0.00,,,0.00,WeatherCatV1.11B39,2013-03-04 18:39:00,
2013-03-04 13:44:00,53.4,25.7,30.04,ESE,117,8.0,13.0,34,0.00,,,0.00,WeatherCatV1.11B39,2013-03-04 18:44:00,
2013-03-04 13:49:00,53.6,25.9,30.03,ESE,116,9.0,19.0,34,0.00,,,0.00,WeatherCatV1.11B39,2013-03-04 18:49:00,
2013-03-04 13:54:00,53.9,26.2,30.03,ESE,119,6.0,6.0,34,0.00,,,0.00,WeatherCatV1.11B39,2013-03-04 18:54:00,
2013-03-04 13:59:00,54.1,25.6,30.03,SE,143,1.0,6.0,33,0.00,,,0.00,WeatherCatV1.11B39,2013-03-04 18:59:00,
2013-03-04 14:04:00,54.3,26.5,30.03,ENE,66,7.0,13.0,34,0.00,,,0.00,WeatherCatV1.11B39,2013-03-04 19:04:00,
2013-03-04 14:09:00,54.3,27.2,30.02,East,83,5.0,13.0,35,0.00,,,0.00,WeatherCatV1.11B39,2013-03-04 19:09:00,
2013-03-04 14:14:00,54.6,27.5,30.01,East,98,4.0,5.0,35,0.00,,,0.00,WeatherCatV1.11B39,2013-03-04 19:14:00,
2013-03-04 14:19:00,54.9,27.8,30.01,East,80,1.0,6.0,35,0.00,,,0.00,WeatherCatV1.11B39,2013-03-04 19:19:00,
2013-03-04 14:24:00,55.3,26.7,30.01,ENE,60,4.0,12.0,33,0.00,,,0.00,WeatherCatV1.11B39,2013-03-04 19:24:00,
2013-03-04 14:29:00,55.2,28.0,30.01,East,85,6.0,11.0,35,0.00,,,0.00,WeatherCatV1.11B39,2013-03-04 19:29:00,
2013-03-04 14:34:00,55.1,25.8,30.01,East,93,2.0,13.0,32,0.00,,,0.00,WeatherCatV1.11B39,2013-03-04 19:34:00,
2013-03-04 14:39:00,55.2,26.6,30.01,East,93,7.0,8.0,33,0.00,,,0.00,WeatherCatV1.11B39,2013-03-04 19:39:00,
2013-03-04 14:44:00,55.1,27.9,30.01,ESE,115,5.0,9.0,35,0.00,,,0.00,WeatherCatV1.11B39,2013-03-04 19:44:00,
2013-03-04 14:49:00,55.3,26.7,30.01,SE,130,7.0,12.0,33,0.00,,,0.00,WeatherCatV1.11B39,2013-03-04 19:49:00,
2013-03-04 14:54:00,55.8,27.9,30.01,East,93,12.0,14.0,34,0.00,,,0.00,WeatherCatV1.11B39,2013-03-04 19:54:00,
2013-03-04 14:59:00,55.5,26.9,30.00,ENE,77,2.0,3.0,33,0.00,,,0.00,WeatherCatV1.11B39,2013-03-04 19:59:00,
2013-03-04 15:04:00,55.9,26.5,30.00,East,88,15.0,15.0,32,0.00,,,0.00,WeatherCatV1.11B39,2013-03-04 20:04:00,
2013-03-04 15:09:00,55.8,26.4,30.00,ESE,103,7.0,15.0,32,0.00,,,0.00,WeatherCatV1.11B39,2013-03-04 20:09:00,
2013-03-04 15:14:00,55.7,27.0,30.00,NE,55,6.0,10.0,33,0.00,,,0.00,WeatherCatV1.11B39,2013-03-04 20:14:00,
2013-03-04 15:19:00,55.9,27.2,30.00,NE,50,4.0,7.0,33,0.00,,,0.00,WeatherCatV1.11B39,2013-03-04 20:19:00,
2013-03-04 15:24:00,56.2,27.5,30.00,ENE,78,7.0,14.0,33,0.00,,,0.00,WeatherCatV1.11B39,2013-03-04 20:24:00,
2013-03-04 15:29:00,56.2,26.7,30.00,ENE,67,0.0,3.0,32,0.00,,,0.00,WeatherCatV1.11B39,2013-03-04 20:29:00,
2013-03-04 15:34:00,56.6,27.8,30.00,ENE,57,12.0,12.0,33,0.00,,,0.00,WeatherCatV1.11B39,2013-03-04 20:34:00,
2013-03-04 15:39:00,56.7,28.6,30.00,ENE,74,12.0,14.0,34,0.00,,,0.00,WeatherCatV1.11B39,2013-03-04 20:39:00,
2013-03-04 15:44:00,56.6,27.1,30.00,East,79,6.0,7.0,32,0.00,,,0.00,WeatherCatV1.11B39,2013-03-04 20:44:00,
2013-03-04 15:49:00,56.7,27.2,30.00,ESE,103,7.0,12.0,32,0.00,,,0.00,WeatherCatV1.11B39,2013-03-04 20:49:00,
2013-03-04 15:54:00,56.9,28.1,30.00,East,91,9.0,14.0,33,0.00,,,0.00,WeatherCatV1.11B39,2013-03-04 20:54:00,
2013-03-04 15:59:00,56.9,27.4,30.00,SSE,150,5.0,12.0,32,0.00,,,0.00,WeatherCatV1.11B39,2013-03-04 20:59:00,
2013-03-04 16:04:00,56.8,27.3,30.00,SSE,152,4.0,9.0,32,0.00,,,0.00,WeatherCatV1.11B39,2013-03-04 21:04:00,
2013-03-04 16:09:00,56.9,27.4,30.00,ESE,118,8.0,11.0,32,0.00,,,0.00,WeatherCatV1.11B39,2013-03-04 21:09:00,
2013-03-04 16:14:00,56.9,27.4,30.00,East,94,9.0,13.0,32,0.00,,,0.00,WeatherCatV1.11B39,2013-03-04 21:14:00,
2013-03-04 16:19:00,56.7,27.2,29.99,NE,51,6.0,9.0,32,0.00,,,0.00,WeatherCatV1.11B39,2013-03-04 21:19:00,
2013-03-04 16:24:00,56.7,27.2,29.99,ENE,77,6.0,6.0,32,0.00,,,0.00,WeatherCatV1.11B39,2013-03-04 21:24:00,
2013-03-04 16:29:00,56.7,28.6,29.99,East,80,8.0,11.0,34,0.00,,,0.00,WeatherCatV1.11B39,2013-03-04 21:29:00,
2013-03-04 16:34:00,56.8,28.0,29.99,East,99,9.0,12.0,33,0.00,,,0.00,WeatherCatV1.11B39,2013-03-04 21:34:00,
2013-03-04 16:38:00,56.7,27.2,29.99,East,96,13.0,13.0,32,0.00,,,0.00,WeatherCatV1.11B39,2013-03-04 21:38:00,
2013-03-04 16:43:00,56.4,28.4,29.99,East,82,8.0,8.0,34,0.00,,,0.00,WeatherCatV1.11B39,2013-03-04 21:43:00,
2013-03-04 16:48:00,56.3,26.8,29.99,East,101,8.0,14.0,32,0.00,,,0.00,WeatherCatV1.11B39,2013-03-04 21:48:00,
2013-03-04 16:53:00,56.2,27.5,30.00,ENE,61,5.0,8.0,33,0.00,,,0.00,WeatherCatV1.11B39,2013-03-04 21:53:00,
2013-03-04 16:58:00,56.2,27.5,30.00,SE,144,2.0,8.0,33,0.00,,,0.00,WeatherCatV1.11B39,2013-03-04 21:58:00,
2013-03-04 17:03:00,56.1,27.4,30.00,ESE,109,7.0,11.0,33,0.00,,,0.00,WeatherCatV1.11B39,2013-03-04 22:03:00,
2013-03-04 17:08:00,55.9,27.9,30.00,East,92,11.0,13.0,34,0.00,,,0.00,WeatherCatV1.11B39,2013-03-04 22:08:00,
2013-03-04 17:13:00,55.7,27.8,30.00,ENE,73,8.0,12.0,34,0.00,,,0.00,WeatherCatV1.11B39,2013-03-04 22:13:00,
2013-03-04 17:18:00,55.4,27.5,30.00,ENE,67,6.0,8.0,34,0.00,,,0.00,WeatherCatV1.11B39,2013-03-04 22:18:00,
2013-03-04 17:23:00,55.2,28.0,30.00,ESE,102,7.0,8.0,35,0.00,,,0.00,WeatherCatV1.11B39,2013-03-04 22:23:00,
2013-03-04 17:28:00,55.0,28.5,29.99,East,93,4.0,6.0,36,0.00,,,0.00,WeatherCatV1.11B39,2013-03-04 22:28:00,
2013-03-04 17:33:00,54.8,27.7,30.00,East,98,6.0,7.0,35,0.00,,,0.00,WeatherCatV1.11B39,2013-03-04 22:33:00,
2013-03-04 17:38:00,54.7,28.3,30.00,East,96,5.0,5.0,36,0.00,,,0.00,WeatherCatV1.11B39,2013-03-04 22:38:00,
2013-03-04 17:43:00,54.6,28.2,30.00,East,86,6.0,7.0,36,0.00,,,0.00,WeatherCatV1.11B39,2013-03-04 22:43:00,
2013-03-04 17:48:00,54.5,27.4,30.00,East,84,5.0,8.0,35,0.00,,,0.00,WeatherCatV1.11B39,2013-03-04 22:48:00,
2013-03-04 17:53:00,54.4,27.3,30.00,East,89,3.0,5.0,35,0.00,,,0.00,WeatherCatV1.11B39,2013-03-04 22:53:00,
2013-03-04 17:58:00,54.2,27.2,30.00,East,100,6.0,6.0,35,0.00,,,0.00,WeatherCatV1.11B39,2013-03-04 22:58:00,
2013-03-04 18:03:00,54.1,27.7,30.00,East,94,0.0,5.0,36,0.00,,,0.00,WeatherCatV1.11B39,2013-03-04 23:03:00,
2013-03-04 18:08:00,54.0,27.7,30.00,ENE,75,3.0,4.0,36,0.00,,,0.00,WeatherCatV1.11B39,2013-03-04 23:08:00,
2013-03-04 18:13:00,53.8,28.1,30.00,ENE,75,2.0,2.0,37,0.00,,,0.00,WeatherCatV1.11B39,2013-03-04 23:13:00,
2013-03-04 18:18:00,53.7,28.1,29.99,ENE,75,1.0,4.0,37,0.00,,,0.00,WeatherCatV1.11B39,2013-03-04 23:18:00,
2013-03-04 18:23:00,53.5,27.2,30.00,ENE,75,2.0,4.0,36,0.00,,,0.00,WeatherCatV1.11B39,2013-03-04 23:23:00,
2013-03-04 18:28:00,53.3,27.7,30.00,ENE,75,0.0,2.0,37,0.00,,,0.00,WeatherCatV1.11B39,2013-03-04 23:28:00,
2013-03-04 18:33:00,53.2,27.6,30.00,ENE,75,0.0,0.0,37,0.00,,,0.00,WeatherCatV1.11B39,2013-03-04 23:33:00,
2013-03-04 18:38:00,53.0,27.4,30.00,ENE,75,0.0,1.0,37,0.00,,,0.00,WeatherCatV1.11B39,2013-03-04 23:38:00,
2013-03-04 18:43:00,52.8,27.9,30.00,ENE,75,1.0,2.0,38,0.00,,,0.00,WeatherCatV1.11B39,2013-03-04 23:43:00,
2013-03-04 18:48:00,52.6,27.7,30.00,ENE,75,0.0,2.0,38,0.00,,,0.00,WeatherCatV1.11B39,2013-03-04 23:48:00,
2013-03-04 18:53:00,52.5,27.6,30.00,ENE,75,0.0,0.0,38,0.00,,,0.00,WeatherCatV1.11B39,2013-03-04 23:53:00,
2013-03-04 18:58:00,52.3,28.1,30.00,ENE,75,2.0,2.0,39,0.00,,,0.00,WeatherCatV1.11B39,2013-03-04 23:58:00,
2013-03-04 19:03:00,52.0,27.8,30.00,ENE,75,0.0,0.0,39,0.00,,,0.00,WeatherCatV1.11B39,2013-03-05 00:03:00,
2013-03-04 19:08:00,51.6,27.5,30.00,ENE,75,0.0,0.0,39,0.00,,,0.00,WeatherCatV1.11B39,2013-03-05 00:08:00,
2013-03-04 19:13:00,51.3,28.4,30.00,ENE,75,0.0,0.0,41,0.00,,,0.00,WeatherCatV1.11B39,2013-03-05 00:13:00,
2013-03-04 19:18:00,50.8,28.5,30.00,ENE,75,0.0,0.0,42,0.00,,,0.00,WeatherCatV1.11B39,2013-03-05 00:18:00,
2013-03-04 19:23:00,50.4,28.8,30.00,ENE,75,1.0,1.0,43,0.00,,,0.00,WeatherCatV1.11B39,2013-03-05 00:23:00,
2013-03-04 19:28:00,50.0,29.0,30.00,ENE,75,1.0,3.0,44,0.00,,,0.00,WeatherCatV1.11B39,2013-03-05 00:28:00,
2013-03-04 19:33:00,49.6,28.6,30.00,ENE,75,0.0,0.0,44,0.00,,,0.00,WeatherCatV1.11B39,2013-03-05 00:33:00,
2013-03-04 19:38:00,49.4,28.4,30.00,ENE,75,0.0,0.0,44,0.00,,,0.00,WeatherCatV1.11B39,2013-03-05 00:38:00,
2013-03-04 19:43:00,49.2,28.8,30.00,ENE,75,0.0,0.0,45,0.00,,,0.00,WeatherCatV1.11B39,2013-03-05 00:43:00,
2013-03-04 19:48:00,48.9,28.5,30.00,ENE,75,0.0,0.0,45,0.00,,,0.00,WeatherCatV1.11B39,2013-03-05 00:48:00,
2013-03-04 19:53:00,48.8,28.4,30.00,ENE,75,0.0,0.0,45,0.00,,,0.00,WeatherCatV1.11B39,2013-03-05 00:53:00,
2013-03-04 19:58:00,48.5,28.1,30.00,ENE,75,0.0,0.0,45,0.00,,,0.00,WeatherCatV1.11B39,2013-03-05 00:58:00,
2013-03-04 20:03:00,48.3,29.0,29.99,ENE,75,1.0,1.0,47,0.00,,,0.00,WeatherCatV1.11B39,2013-03-05 01:03:00,
2013-03-04 20:08:00,48.0,28.2,29.99,ENE,75,0.0,1.0,46,0.00,,,0.00,WeatherCatV1.11B39,2013-03-05 01:08:00,
2013-03-04 20:13:00,47.8,29.1,29.99,ENE,75,0.0,2.0,48,0.00,,,0.00,WeatherCatV1.11B39,2013-03-05 01:13:00,
2013-03-04 20:18:00,47.6,28.4,29.99,ENE,75,1.0,2.0,47,0.00,,,0.00,WeatherCatV1.11B39,2013-03-05 01:18:00,
2013-03-04 20:23:00,47.3,28.6,29.99,ENE,75,2.0,3.0,48,0.00,,,0.00,WeatherCatV1.11B39,2013-03-05 01:23:00,
2013-03-04 20:28:00,47.0,29.3,29.99,ENE,75,2.0,2.0,50,0.00,,,0.00,WeatherCatV1.11B39,2013-03-05 01:28:00,
2013-03-04 20:33:00,46.8,29.6,30.00,SE,130,4.0,4.0,51,0.00,,,0.00,WeatherCatV1.11B39,2013-03-05 01:33:00,
2013-03-04 20:38:00,46.6,29.0,30.00,SE,130,2.0,2.0,50,0.00,,,0.00,WeatherCatV1.11B39,2013-03-05 01:38:00,
2013-03-04 20:43:00,46.6,29.9,30.00,SE,130,2.0,4.0,52,0.00,,,0.00,WeatherCatV1.11B39,2013-03-05 01:43:00,
2013-03-04 20:48:00,46.5,29.8,30.01,SE,130,0.0,2.0,52,0.00,,,0.00,WeatherCatV1.11B39,2013-03-05 01:48:00,
2013-03-04 20:53:00,46.4,29.7,30.01,SE,130,0.0,0.0,52,0.00,,,0.00,WeatherCatV1.11B39,2013-03-05 01:53:00,
2013-03-04 20:58:00,46.4,29.7,30.01,SE,130,0.0,0.0,52,0.00,,,0.00,WeatherCatV1.11B39,2013-03-05 01:58:00,
2013-03-04 21:03:00,46.3,30.1,30.01,SE,130,0.0,0.0,53,0.00,,,0.00,WeatherCatV1.11B39,2013-03-05 02:03:00,
2013-03-04 21:08:00,46.1,29.5,30.01,SE,130,0.0,0.0,52,0.00,,,0.00,WeatherCatV1.11B39,2013-03-05 02:08:00,
2013-03-04 21:13:00,45.9,29.7,30.01,SE,130,0.0,0.0,53,0.00,,,0.00,WeatherCatV1.11B39,2013-03-05 02:13:00,
2013-03-04 21:18:00,45.7,29.6,30.01,SE,130,0.0,0.0,53,0.00,,,0.00,WeatherCatV1.11B39,2013-03-05 02:18:00,
2013-03-04 21:23:00,45.5,29.4,30.01,SE,130,0.0,0.0,53,0.00,,,0.00,WeatherCatV1.11B39,2013-03-05 02:23:00,
2013-03-04 21:28:00,45.3,30.1,30.01,SE,130,0.0,0.0,55,0.00,,,0.00,WeatherCatV1.11B39,2013-03-05 02:28:00,
2013-03-04 21:33:00,45.0,29.4,30.01,SE,130,0.0,0.0,54,0.00,,,0.00,WeatherCatV1.11B39,2013-03-05 02:33:00,
2013-03-04 21:37:00,44.7,29.1,30.01,SE,130,2.0,2.0,54,0.00,,,0.00,WeatherCatV1.11B39,2013-03-05 02:37:00,
2013-03-04 21:42:00,44.5,28.9,30.00,SE,130,0.0,0.0,54,0.00,,,0.00,WeatherCatV1.11B39,2013-03-05 02:42:00,
2013-03-04 21:47:00,44.2,29.5,30.00,SE,130,0.0,2.0,56,0.00,,,0.00,WeatherCatV1.11B39,2013-03-05 02:47:00,
2013-03-04 21:52:00,44.0,29.3,30.01,SE,130,0.0,2.0,56,0.00,,,0.00,WeatherCatV1.11B39,2013-03-05 02:52:00,
2013-03-04 21:57:00,43.9,29.7,30.01,SE,130,0.0,0.0,57,0.00,,,0.00,WeatherCatV1.11B39,2013-03-05 02:57:00,
2013-03-04 22:02:00,43.6,29.4,30.01,SE,130,0.0,0.0,57,0.00,,,0.00,WeatherCatV1.11B39,2013-03-05 03:02:00,
2013-03-04 22:07:00,43.3,29.5,30.02,SE,130,0.0,0.0,58,0.00,,,0.00,WeatherCatV1.11B39,2013-03-05 03:07:00,
2013-03-04 22:12:00,42.9,29.2,30.02,SE,130,0.0,0.0,58,0.00,,,0.00,WeatherCatV1.11B39,2013-03-05 03:12:00,
2013-03-04 22:17:00,42.7,29.4,30.02,SE,130,4.0,4.0,59,0.00,,,0.00,WeatherCatV1.11B39,2013-03-05 03:17:00,
2013-03-04 22:22:00,42.4,28.3,30.02,SE,130,0.0,0.0,57,0.00,,,0.00,WeatherCatV1.11B39,2013-03-05 03:22:00,
2013-03-04 22:27:00,42.2,29.3,30.01,SE,130,0.0,0.0,60,0.00,,,0.00,WeatherCatV1.11B39,2013-03-05 03:27:00,
2013-03-04 22:32:00,41.9,29.0,30.01,SE,130,1.0,1.0,60,0.00,,,0.00,WeatherCatV1.11B39,2013-03-05 03:32:00,
2013-03-04 22:37:00,41.6,29.2,30.01,SE,131,2.0,2.0,61,0.00,,,0.00,WeatherCatV1.11B39,2013-03-05 03:37:00,
2013-03-04 22:42:00,41.3,29.3,30.02,SE,131,1.0,2.0,62,0.00,,,0.00,WeatherCatV1.11B39,2013-03-05 03:42:00,
2013-03-04 22:47:00,41.0,29.0,30.01,SE,131,0.0,0.0,62,0.00,,,0.00,WeatherCatV1.11B39,2013-03-05 03:47:00,
2013-03-04 22:52:00,40.9,28.9,30.01,SE,131,0.0,0.0,62,0.00,,,0.00,WeatherCatV1.11B39,2013-03-05 03:52:00,
2013-03-04 22:57:00,40.7,29.5,30.01,SE,131,0.0,2.0,64,0.00,,,0.00,WeatherCatV1.11B39,2013-03-05 03:57:00,
2013-03-04 23:02:00,40.6,29.4,30.01,SE,131,0.0,0.0,64,0.00,,,0.00,WeatherCatV1.11B39,2013-03-05 04:02:00,
2013-03-04 23:07:00,40.5,29.7,30.01,SE,131,1.0,2.0,65,0.00,,,0.00,WeatherCatV1.11B39,2013-03-05 04:07:00,
2013-03-04 23:12:00,40.2,29.8,30.02,SE,135,4.0,4.0,66,0.00,,,0.00,WeatherCatV1.11B39,2013-03-05 04:12:00,
2013-03-04 23:17:00,40.1,28.9,30.02,SE,136,0.0,0.0,64,0.00,,,0.00,WeatherCatV1.11B39,2013-03-05 04:17:00,
2013-03-04 23:22:00,40.1,29.3,30.01,SE,136,0.0,0.0,65,0.00,,,0.00,WeatherCatV1.11B39,2013-03-05 04:22:00,
2013-03-04 23:27:00,40.0,29.2,30.01,SE,136,0.0,0.0,65,0.00,,,0.00,WeatherCatV1.11B39,2013-03-05 04:27:00,
2013-03-04 23:32:00,39.9,29.5,30.01,SE,136,0.0,0.0,66,0.00,,,0.00,WeatherCatV1.11B39,2013-03-05 04:32:00,
2013-03-04 23:37:00,39.8,29.4,30.01,SE,136,0.0,0.0,66,0.00,,,0.00,WeatherCatV1.11B39,2013-03-05 04:37:00,
2013-03-04 23:42:00,39.7,29.7,30.01,SE,136,1.0,2.0,67,0.00,,,0.00,WeatherCatV1.11B39,2013-03-05 04:42:00,
2013-03-04 23:47:00,39.7,29.7,30.01,SE,136,1.0,2.0,67,0.00,,,0.00,WeatherCatV1.11B39,2013-03-05 04:47:00,
2013-03-04 23:52:00,39.6,29.2,30.01,SE,136,0.0,0.0,66,0.00,,,0.00,WeatherCatV1.11B39,2013-03-05 04:52:00,
2013-03-04 23:57:00,39.6,29.9,30.02,SE,136,0.0,0.0,68,0.00,,,0.00,WeatherCatV1.11B39,2013-03-05 04:57:00,